[[{"header":{"parameterUnit":"m.s-1","parameterCategory":1,"la1":30.2991,"la2":30.254,"lo1":-89.0895,"lo2":-89.0444,"dy":0.0017,"dx":0.0017,"nx":28,"ny":28,"refTime":"2025-12-12T09:00:00:Z","depth":0,"parameterNumber":2,"parameterNumberName":"U-component_of_WINDS"},"data":[0,0,0,0,0,0,0,0,0,0,0,0,0,0,0,0,0,0,0,0,0,0,0,0,0,0,0,0,0,0,0,0,0,0,0,0,0,0,0,0,0,0,0,0,0,0,0,0,0,0,0,0,0,0,0,0,0,0,-1.9036,-1.9038,0,-1.9175,-1.9177,-1.9178,-1.9204,-1.9202,-1.9201,-1.92,-1.9343,-1.9348,-1.9353,0,0,0,0,0,0,0,0,0,0,0,0,0,-1.879,-1.8794,-1.9036,-1.9038,-1.904,-1.9175,-1.9177,-1.9179,-1.9204,-1.9202,-1.9201,-1.92,-1.9342,-1.9347,-1.9353,0,0,0,0,0,0,0,0,0,0,0,0,0,-1.891,-1.8796,-1.9036,-1.9068,-1.9073,-1.9175,-1.9177,-1.9179,-1.9204,-1.9202,-1.9201,-1.9199,-1.934,-1.9347,-1.9354,-1.9434,0,0,-1.9376,-1.938,0,0,0,0,0,0,0,0,-1.8903,-1.8919,-1.9062,-1.9066,-1.9071,-1.917,-1.9143,-1.9265,-1.9204,-1.9154,-1.92,-1.9198,-1.9287,-1.9299,-1.9329,-1.944,-1.9447,-1.9377,-1.9382,-1.9385,-1.9387,0,0,0,0,0,0,0,-1.8894,-1.8913,-1.9091,-1.9064,-1.907,-1.9075,-1.909,-1.9166,-1.9229,-1.9158,-1.9161,-1.9177,-1.9289,-1.9321,-1.9332,-1.9449,-1.9377,-1.9383,-1.9388,-1.9391,-1.9628,-1.963,0,0,0,0,0,0,-1.888,-1.8906,-1.9087,-1.9095,-1.8981,-1.9081,-1.9098,-1.914,-1.9228,-1.924,-1.9178,-1.9177,-1.931,-1.9324,-1.9337,-1.9434,-1.9385,-1.9392,-1.9396,-1.9627,-1.9629,-1.9631,0,0,0,0,0,0,-1.8875,-1.8896,-1.9081,-1.9001,-1.9025,-1.9087,-1.9134,-1.9144,-1.9176,-1.9243,-1.9254,-1.9199,-1.9309,-1.9327,-1.9409,-1.9439,-1.9395,-1.9401,-1.9624,-1.9627,-1.963,-1.9628,0,0,0,0,0,0,-1.8868,-1.8894,-1.8926,-1.9002,-1.9029,-1.9151,-1.9136,-1.9148,-1.9189,-1.9189,-1.9266,-1.9277,-1.9309,-1.9397,-1.9416,-1.9448,-1.9407,-1.9622,-1.9626,-1.9629,-1.9626,-1.9631,-1.9635,0,0,0,0,0,-1.8859,-1.8921,-1.8928,-1.8949,-1.907,-1.9153,-1.9168,-1.9204,-1.9191,-1.9222,-1.9265,-1.9274,-1.9433,-1.9406,-1.9427,-1.9462,-1.962,-1.9625,-1.9629,-1.9624,-1.963,-1.9635,0,0,0,0,0,0,-1.8849,-1.8932,-1.894,-1.9028,-1.9083,-1.9157,-1.9198,-1.921,-1.927,-1.9268,-1.931,-1.9327,-1.9405,-1.9442,-1.941,-1.9541,-1.9525,-1.9534,-1.9514,-1.9521,-1.9525,-1.9514,-1.9413,0,0,0,0,0,-1.8856,-1.8917,-1.8986,-1.9057,-1.9084,-1.9136,-1.9174,-1.9196,-1.9254,-1.9278,-1.9326,-1.9382,-1.9444,-1.9485,-1.9546,-1.9631,-1.9647,-1.9665,-1.9669,-1.9673,-1.968,-1.9724,-1.9732,-1.9645,-1.9645,-1.9645,0,0,-1.8874,-1.8926,-1.8962,-1.9056,-1.9102,-1.9162,-1.9156,-1.9221,-1.9265,-1.9288,-1.9367,-1.9404,-1.9469,-1.9552,-1.9591,-1.9585,-1.9707,-1.9678,-1.9681,-1.9686,-1.9729,-1.9737,-1.9744,-1.9648,-1.9648,-1.9647,0,0,-1.8935,-1.8982,-1.9045,-1.909,-1.9157,-1.9191,-1.9205,-1.9277,-1.9302,-1.9382,-1.9399,-1.9452,-1.9559,-1.9604,-1.9641,-1.9714,-1.9725,-1.9733,-1.9757,-1.9799,-1.9806,-1.9812,-1.9836,-1.9845,-1.974,-1.974,-1.974,0,-1.8948,-1.904,-1.9076,-1.9139,-1.9179,-1.9201,-1.9263,-1.9305,-1.9389,-1.9415,-1.9407,-1.9539,-1.9585,-1.9677,-1.9694,-1.9724,-1.974,-1.9725,-1.9802,-1.9809,-1.9815,-1.9838,-1.9847,-1.974,-1.974,-1.974,-1.974,0,-1.9051,-1.9114,-1.9157,-1.9236,-1.928,-1.9343,-1.9387,-1.9428,-1.9445,-1.9479,-1.9558,-1.9613,-1.9684,-1.9707,-1.9726,-1.9801,-1.9795,-1.9794,-1.9779,-1.9823,-1.9845,-1.9855,-1.9741,-1.9741,-1.9741,-1.9741,0,0,-1.9112,-1.9208,-1.9223,-1.9257,-1.9331,-1.9381,-1.9443,-1.9511,-1.9544,-1.96,-1.9652,-1.974,-1.9739,-1.978,-1.9804,-1.9841,-1.9892,-1.9836,-1.9838,-1.9842,-1.9974,-1.9973,-1.9983,-1.9899,-1.9901,-1.9903,-1.9968,0,-1.9181,-1.9293,-1.9325,-1.9419,-1.9476,-1.9496,-1.955,-1.96,-1.9633,-1.9685,-1.9721,-1.9781,-1.9776,-1.9801,-1.9839,-1.9878,-1.9919,-1.9874,-1.9947,-1.9949,-1.9928,-1.9996,-1.9996,-2.0055,-1.9977,-1.9979,-1.998,0,-1.9278,-1.9334,-1.9433,-1.9496,-1.9521,-1.9569,-1.9632,-1.9683,-1.9739,-1.976,-1.9804,-1.9823,-1.9887,-1.9868,-1.9955,-1.9923,-1.9955,-1.9978,-1.9981,-1.9989,-1.9966,-2.0003,-2.0075,-2.0083,-1.9995,-1.9994,-1.9993,0,-1.9309,-1.9409,-1.9481,-1.951,-1.9587,-1.9619,-1.9653,-1.9708,-1.9745,-1.98,-1.9825,-1.9887,-1.992,-1.9967,-2.0001,-1.9985,-2.0084,-2.0069,-2.0102,-2.0101,-2.0122,-2.012,-2.0198,-2.0144,-2.0144,-2.0144,-2.0144,0,-1.9382,-1.9441,-1.9495,-1.9539,-1.9605,-1.9641,-1.9705,-1.9739,-1.9787,-1.9836,-1.9857,-1.9903,-1.9947,-1.9998,-2.0025,-2.0091,-2.0107,-2.0124,-2.013,-2.0122,-2.0119,-2.0142,-2.0138,-2.0146,-2.0146,-2.0145,-2.0145,0,-1.9428,-1.9468,-1.9546,-1.9611,-1.9629,-1.9674,-1.9729,-1.9771,-1.9803,-1.9865,-1.9882,-1.9932,-1.9993,-2.0031,-2.011,-2.0128,-2.0199,-2.0205,-2.018,-2.0183,-2.0212,-2.0208,-2.0307,-2.0321,-2.0259,-2.0259,-2.026,0,-1.9472,-1.9518,-1.9586,-1.9621,-1.9654,-1.9709,-1.9747,-1.9783,-1.9821,-1.9887,-1.992,-1.9982,-2.0034,-2.0129,-2.0172,-2.0231,-2.0237,-2.0268,-2.0246,-2.0235,-2.0235,-2.0231,-2.0235,-2.0271,-2.0272,-2.0272,-2.0272,0,-1.9544,-1.956,-1.9614,-1.9673,-1.9717,-1.9766,-1.9815,-1.9842,-1.9885,-1.9927,-1.9989,-2.0028,-2.0106,-2.0166,-2.0228,-2.0261,-2.0273,-2.0278,-2.0289,-2.028,-2.0262,-2.027,-2.0188,-2.0276,-2.0276,-2.0276,-2.0275,-2.0275,-1.9589,-1.9629,-1.9683,-1.9741,-1.9781,-1.9825,-1.9867,-1.9903,-1.9955,-2.002,-2.0038,-2.0102,-2.0154,-2.0238,-2.0272,-2.0321,-2.0317,-2.0333,-2.0337,-2.0339,-2.0338,-2.0255,-2.0333,-2.0333,-2.0333,-2.0333,-2.0333,0,-1.9661,-1.9695,-1.9748,-1.9814,-1.9859,-1.9866,-1.9919,-1.9956,-2.0012,-2.0059,-2.0108,-2.0177,-2.0235,-2.028,-2.0339,-2.037,-2.0376,-2.0384,-2.0381,-2.0388,-2.034,-2.0324,-2.0377,-2.0377,-2.0377,-2.0377,-2.0377,-2.0377,-1.9703,-1.977,-1.9792,-1.9878,-1.9912,-1.9974,-2.0003,-2.0043,-2.0081,-2.0157,-2.0204,-2.0233,-2.0279,-2.0341,-2.0393,-2.0405,-2.0425,-2.043,-2.0443,-2.0397,-2.0392,-2.0387,-2.0373,-2.0435,-2.0435,-2.0487,-2.0488,-2.0488]},{"header":{"parameterUnit":"m.s-1","parameterCategory":1,"la1":30.2991,"la2":30.254,"lo1":-89.0895,"lo2":-89.0444,"dy":0.0017,"dx":0.0017,"nx":28,"ny":28,"refTime":"2025-12-12T09:00:00:Z","depth":0,"parameterNumber":3,"parameterNumberName":"V-component_of_WINDS"},"data":[0,0,0,0,0,0,0,0,0,0,0,0,0,0,0,0,0,0,0,0,0,0,0,0,0,0,0,0,0,0,0,0,0,0,0,0,0,0,0,0,0,0,0,0,0,0,0,0,0,0,0,0,0,0,0,0,0,0,0.4353,0.4355,0,0.4519,0.4521,0.4523,0.4577,0.4577,0.4576,0.4575,0.4751,0.4756,0.4762,0,0,0,0,0,0,0,0,0,0,0,0,0,0.409,0.4094,0.4353,0.4355,0.4357,0.4519,0.4521,0.4523,0.4577,0.4577,0.4576,0.4575,0.4749,0.4756,0.4762,0,0,0,0,0,0,0,0,0,0,0,0,0,0.4225,0.4096,0.4352,0.4403,0.4409,0.4518,0.4521,0.4524,0.4578,0.4577,0.4575,0.4574,0.4747,0.4755,0.4763,0.4835,0,0,0.4788,0.4791,0,0,0,0,0,0,0,0,0.4217,0.4234,0.4394,0.44,0.4407,0.4526,0.4493,0.4628,0.4578,0.4514,0.4575,0.4574,0.4678,0.4691,0.4725,0.4843,0.4851,0.4788,0.4793,0.4797,0.4799,0,0,0,0,0,0,0,0.4208,0.4228,0.4419,0.4396,0.4404,0.442,0.4438,0.4519,0.46,0.4519,0.4524,0.4542,0.4681,0.4717,0.473,0.4853,0.4788,0.4795,0.48,0.4803,0.5044,0.5045,0,0,0,0,0,0,0.4189,0.4219,0.4413,0.4424,0.4307,0.4426,0.4446,0.4489,0.4599,0.4615,0.4543,0.4544,0.4704,0.472,0.4736,0.483,0.4797,0.4804,0.4809,0.5042,0.5044,0.5046,0,0,0,0,0,0,0.4183,0.4205,0.4407,0.4323,0.435,0.4432,0.448,0.4493,0.4529,0.4617,0.4633,0.4565,0.4704,0.4725,0.4811,0.4837,0.4808,0.4815,0.504,0.5043,0.5045,0.5017,0,0,0,0,0,0,0.4175,0.4203,0.4229,0.4323,0.4354,0.4476,0.4481,0.4497,0.4542,0.4545,0.4641,0.4656,0.4704,0.4798,0.4819,0.4847,0.4822,0.5038,0.5041,0.5044,0.5016,0.5018,0.502,0,0,0,0,0,0.4165,0.4215,0.423,0.4253,0.4388,0.4477,0.4495,0.4548,0.4544,0.4573,0.463,0.4653,0.483,0.4807,0.483,0.4862,0.5037,0.504,0.5044,0.5015,0.5018,0.502,0,0,0,0,0,0,0.4123,0.4228,0.4246,0.4327,0.4393,0.4486,0.4523,0.4548,0.4618,0.4618,0.4682,0.4704,0.4785,0.4832,0.4804,0.4939,0.4935,0.4944,0.4905,0.4908,0.491,0.4898,0.4828,0,0,0,0,0,0.4123,0.4185,0.4274,0.4337,0.4369,0.444,0.4481,0.4516,0.4588,0.4616,0.468,0.475,0.4822,0.4868,0.4939,0.5023,0.5047,0.5057,0.5059,0.506,0.5067,0.5118,0.5125,0.5057,0.5057,0.5057,0,0,0.4124,0.4189,0.4224,0.433,0.4385,0.445,0.4463,0.4531,0.4581,0.4627,0.4712,0.4761,0.4844,0.493,0.4972,0.4972,0.5091,0.5064,0.5065,0.5071,0.5122,0.5129,0.5134,0.5059,0.5059,0.5059,0,0,0.4159,0.4213,0.4273,0.4328,0.4411,0.4458,0.4473,0.4563,0.4598,0.4684,0.4721,0.4782,0.4904,0.4962,0.5008,0.5069,0.5094,0.509,0.51,0.515,0.5155,0.516,0.5184,0.5192,0.5096,0.5096,0.5096,0,0.415,0.4247,0.4301,0.4367,0.4414,0.4458,0.4521,0.4573,0.4675,0.4708,0.4707,0.4862,0.4921,0.5023,0.5038,0.5073,0.5094,0.5079,0.515,0.5155,0.5161,0.5185,0.5193,0.5095,0.5095,0.5096,0.5096,0,0.4233,0.43,0.4339,0.4436,0.4487,0.4551,0.4618,0.4664,0.4696,0.4744,0.4834,0.4906,0.4994,0.5021,0.5052,0.5129,0.5127,0.5137,0.5134,0.5166,0.5189,0.5198,0.5094,0.5094,0.5095,0.5095,0,0,0.4244,0.4372,0.4385,0.4431,0.4527,0.4581,0.465,0.4734,0.4774,0.4844,0.4904,0.5008,0.5019,0.5071,0.511,0.5153,0.52,0.5159,0.5162,0.5165,0.5292,0.5284,0.5293,0.5217,0.5219,0.522,0.5285,0,0.4293,0.4413,0.4465,0.4563,0.4628,0.4673,0.4733,0.48,0.4848,0.4912,0.4967,0.504,0.5047,0.5079,0.5124,0.5184,0.5226,0.518,0.5277,0.528,0.5255,0.5305,0.5297,0.5355,0.5295,0.5296,0.5297,0,0.4364,0.4434,0.4538,0.463,0.4659,0.4711,0.4795,0.4854,0.4933,0.4966,0.5025,0.5062,0.5139,0.5131,0.5239,0.5207,0.525,0.5286,0.529,0.5301,0.5291,0.532,0.5374,0.5383,0.5312,0.5311,0.531,0,0.4365,0.4485,0.4563,0.4601,0.4709,0.4745,0.4792,0.487,0.4918,0.4992,0.5025,0.5107,0.5153,0.5217,0.5277,0.5265,0.5381,0.5377,0.5413,0.5411,0.5435,0.5433,0.5498,0.5461,0.546,0.546,0.546,0,0.4414,0.4476,0.4565,0.4613,0.4686,0.4747,0.4818,0.4869,0.4938,0.5,0.5044,0.5102,0.5177,0.5245,0.5293,0.5377,0.5397,0.5427,0.544,0.5424,0.542,0.5454,0.5452,0.5463,0.5462,0.5462,0.5461,0,0.4425,0.4487,0.4576,0.4671,0.4697,0.4747,0.483,0.4881,0.4932,0.5009,0.5031,0.5113,0.5195,0.5261,0.537,0.5402,0.5491,0.5504,0.5464,0.5471,0.5503,0.55,0.5593,0.5609,0.5559,0.5559,0.5559,0,0.4453,0.4502,0.4603,0.4646,0.4693,0.4762,0.4812,0.4876,0.4926,0.5022,0.5062,0.5147,0.5219,0.535,0.542,0.5504,0.5521,0.5548,0.5534,0.5518,0.5524,0.5521,0.5527,0.5549,0.5549,0.555,0.555,0,0.4496,0.4525,0.4594,0.4675,0.4733,0.48,0.4868,0.4902,0.4979,0.5034,0.5119,0.5174,0.5285,0.5371,0.5463,0.5515,0.5547,0.5554,0.5567,0.5552,0.5527,0.5543,0.547,0.5551,0.5551,0.5551,0.5551,0.5551,0.4518,0.4565,0.4644,0.472,0.4779,0.4842,0.4895,0.4953,0.5024,0.5118,0.5152,0.524,0.5322,0.5448,0.5501,0.5573,0.5575,0.5593,0.5598,0.5602,0.5602,0.5515,0.5589,0.5589,0.5589,0.5589,0.559,0,0.4565,0.4618,0.4688,0.4782,0.4844,0.4866,0.4944,0.4995,0.5071,0.5143,0.5213,0.5313,0.5397,0.5474,0.5563,0.5606,0.5623,0.5627,0.5626,0.5638,0.5593,0.5573,0.5612,0.5612,0.5612,0.5612,0.5612,0.5612,0.4596,0.4678,0.4717,0.4829,0.4883,0.4968,0.5011,0.5071,0.513,0.5238,0.5307,0.5357,0.5433,0.5528,0.5608,0.5629,0.5661,0.5662,0.5687,0.5644,0.564,0.5637,0.562,0.5668,0.5668,0.5726,0.5727,0.5727]}]]